Location: Unspecified
(0.0000°N, 0.0000°E)
Time: 03:56:48
(UTC+00:00)

Vanguard 2 Rocket - Visible Passes

Search period start: 25 April 2014 00:00
Search period end: 05 May 2014 00:00
Orbit: 555 x 3336 km, 32.9° (Epoch: 24 April)

Date Brightness Start Highest point End Pass type
(mag) Time Alt. Az. Time Alt. Az. Time Alt. Az.
25 Apr 9.9 02:28:44 45° SSE 02:31:30 46° SSE 02:49:36 10° E visible
25 Apr 9.5 04:34:41 21° WSW 04:51:08 84° NW 05:07:20 10° NE visible
25 Apr 8.9 18:26:57 10° WSW 18:30:16 17° SSW 18:34:33 10° SSE visible
26 Apr 10.3 01:34:12 33° SE 01:34:12 33° SE 01:47:45 10° E visible
26 Apr 9.5 03:40:10 41° SW 03:50:16 78° SE 04:08:10 10° ENE visible
27 Apr 10.8 00:39:38 17° ESE 00:39:38 17° ESE 00:44:25 10° E visible
27 Apr 9.6 02:45:35 57° S 02:49:12 62° SE 03:08:10 10° ENE visible
27 Apr 9.6 04:51:32 18° WSW 05:08:25 64° NW 05:24:24 10° NE visible
28 Apr 9.9 01:50:58 46° SE 01:50:58 46° SE 02:07:09 10° ENE visible
28 Apr 9.5 03:56:55 39° WSW 04:07:36 81° NW 04:25:34 10° NE visible
29 Apr 10.5 00:56:18 26° ESE 00:56:18 26° ESE 01:04:53 10° E visible
29 Apr 9.4 03:02:14 66° SW 03:06:35 82° SE 03:26:00 10° ENE visible
29 Apr 9.9 05:08:11 13° WSW 05:25:48 47° NW 05:41:09 10° NE visible
30 Apr 9.6 02:07:30 63° ESE 02:07:30 63° ESE 02:25:35 10° ENE visible
30 Apr 9.7 04:13:26 32° WSW 04:24:55 61° NW 04:42:31 10° NE visible
01 May 10.2 01:12:42 37° E 01:12:42 37° E 01:24:10 10° ENE visible
01 May 9.4 03:18:37 60° WSW 03:23:52 77° NW 03:43:16 10° NE visible
01 May 10.2 05:26:14 10° W 05:43:31 34° NNW 05:57:43 10° NNE visible
02 May 10.8 00:17:49 17° E 00:17:49 17° E 00:21:33 10° E visible
02 May 9.3 02:23:45 83° E 02:23:45 83° E 02:43:17 10° NE visible
02 May 10.0 04:29:40 23° W 04:42:26 45° NW 04:59:13 10° NE visible
03 May 9.9 01:28:48 49° E 01:28:48 49° E 01:42:28 10° ENE visible
03 May 9.6 03:34:42 46° W 03:41:15 58° NW 04:00:08 10° NE visible
04 May 10.5 00:33:47 25° E 00:33:47 25° E 00:40:42 10° ENE visible
04 May 9.3 02:39:41 73° NW 02:40:07 73° NW 03:00:25 10° NE visible
04 May 10.3 04:45:35 14° W 05:00:24 33° NNW 05:15:47 10° NNE visible
